Belvidere, Illinois, United States (61008)
Lat: 42.26N, Lon: 88.84W
Wx Zone: ILZ004
Local Info
Past Weather Observations for Tuesday, January 27, 2015

NOTE: This archive is for the closest National Weather Service station to Belvidere. Information may differ from the station used for current weather conditions.

Click here for Long-term Archive

Time Weather Temperature Dewpoint Humidity Pressure Winds Precip Visibility
23:54
Overcast
23°F / -5°C 18°F / -8°C 80% 30.27 in
(1025 mb)
SSE 4.6 mph
(SSE 7 kph)
- 10SM
22:54
Overcast
25°F / -4°C 18°F / -8°C 74% 30.27 in
(1025 mb)
SE 4.6 mph
(SE 7 kph)
- 10SM
22:35
Overcast
25°F / -4°C 18°F / -8°C 74% 30.27 in
(1025 mb)
SE 5.8 mph
(SE 9 kph)
- 10SM
21:54
Overcast
25°F / -4°C 19°F / -7°C 80% 30.27 in
(1025 mb)
SE 9.2 mph
(SE 15 kph)
- 10SM
21:46
Overcast
25°F / -4°C 19°F / -7°C 80% 30.27 in
(1025 mb)
SE 6.9 mph
(SE 11 kph)
- 9SM
20:54
Mostly Cloudy
21°F / -6°C 18°F / -8°C 86% 30.27 in
(1025 mb)
Calm - 7SM
19:54
Partly Cloudy
25°F / -4°C 19°F / -7°C 80% 30.24 in
(1024 mb)
Calm - 10SM
19:07
Partly Cloudy
28°F / -2°C 21°F / -6°C 74% 30.24 in
(1024 mb)
ESE 4.6 mph
(ESE 7 kph)
- 10SM
18:54
Mostly Cloudy
30°F / -1°C 23°F / -5°C 75% 30.24 in
(1024 mb)
Calm - 10SM
17:54
Overcast
28°F / -2°C 25°F / -4°C 86% 30.24 in
(1024 mb)
Calm - 9SM
16:54
Mostly Cloudy
30°F / -1°C 21°F / -6°C 69% 30.24 in
(1024 mb)
Calm - 10SM
15:54
Overcast
30°F / -1°C 21°F / -6°C 69% 30.24 in
(1024 mb)
Calm - 10SM
14:54
Overcast
30°F / -1°C 21°F / -6°C 69% 30.21 in
(1023 mb)
Calm - 10SM
13:54
Overcast
30°F / -1°C 23°F / -5°C 75% 30.21 in
(1023 mb)
NNE 4.6 mph
(NNE 7 kph)
- 9SM
12:54
Overcast
30°F / -1°C 23°F / -5°C 75% 30.18 in
(1022 mb)
E 5.8 mph
(E 9 kph)
- 9SM
12:14
Overcast
30°F / -1°C 23°F / -5°C 75% 30.21 in
(1023 mb)
ENE 5.8 mph
(ENE 9 kph)
- 7SM
11:54
Overcast
Hazy
30°F / -1°C 25°F / -4°C 80% 30.18 in
(1022 mb)
E 4.6 mph
(E 7 kph)
- 6SM
10:54
Overcast
Hazy
28°F / -2°C 25°F / -4°C 86% 30.18 in
(1022 mb)
ENE 6.9 mph
(ENE 11 kph)
- 5SM
10:52
Overcast
Hazy
28°F / -2°C 25°F / -4°C 86% 30.18 in
(1022 mb)
ENE 5.8 mph
(ENE 9 kph)
- 5SM
09:54
Overcast
Fog And Mist
28°F / -2°C 25°F / -4°C 86% 30.18 in
(1022 mb)
NE 9.2 mph
(NE 15 kph)
- 4SM
09:01
Overcast
Fog And Mist
27°F / -3°C 23°F / -5°C 86% 30.15 in
(1021 mb)
NNE 9.2 mph
(NNE 15 kph)
- 5SM
08:54
Overcast
Fog And Mist
27°F / -3°C 23°F / -5°C 86% 30.15 in
(1021 mb)
NNE 10.4 mph
(NNE 17 kph)
- 5SM
07:54
Overcast
Fog And Mist
27°F / -3°C 21°F / -6°C 80% 30.12 in
(1020 mb)
N 9.2 mph
(N 15 kph)
- 3SM
07:01
Overcast
Fog And Mist
27°F / -3°C 21°F / -6°C 80% 30.09 in
(1019 mb)
N 10.4 mph
(N 17 kph)
- 3SM
06:54
Overcast
Fog And Mist
27°F / -3°C 21°F / -6°C 80% 30.09 in
(1019 mb)
N 10.4 mph
(N 17 kph)
- 2SM
06:21
Overcast
Fog And Mist
27°F / -3°C 21°F / -6°C 80% 30.06 in
(1018 mb)
NNE 11.5 mph
(NNE 19 kph)
- 2SM
05:54
Overcast
Fog And Mist
27°F / -3°C 23°F / -5°C 86% 30.06 in
(1018 mb)
NNE 10.4 mph
(NNE 17 kph)
- 2SM
04:54
Overcast
Fog And Mist
27°F / -3°C 23°F / -5°C 86% 30.04 in
(1017 mb)
N 9.2 mph
(N 15 kph)
- 2SM
04:43
Overcast
Fog And Mist
27°F / -3°C 23°F / -5°C 86% 30.04 in
(1017 mb)
N 10.4 mph
(N 17 kph)
- 2SM
03:54
Overcast
Fog And Mist
27°F / -3°C 25°F / -4°C 93% 30.01 in
(1016 mb)
N 5.8 mph
(N 9 kph)
- 2SM
02:54
Overcast
Fog And Mist
27°F / -3°C 25°F / -4°C 93% 30.01 in
(1016 mb)
N 5.8 mph
(N 9 kph)
- 2SM
01:54
Overcast
Fog And Mist
27°F / -3°C 25°F / -4°C 93% 29.98 in
(1015 mb)
N 4.6 mph
(N 7 kph)
- 2SM
01:17
Mostly Cloudy
Fog And Mist
25°F / -4°C 21°F / -6°C 86% 29.95 in
(1014 mb)
N 4.6 mph
(N 7 kph)
- 2SM
01:12
Mostly Cloudy
Fog And Mist
25°F / -4°C 23°F / -5°C 93% 29.95 in
(1014 mb)
N 4.6 mph
(N 7 kph)
- 2SM
00:54
Overcast
Fog And Mist
27°F / -3°C 25°F / -4°C 93% 29.95 in
(1014 mb)
N 4.6 mph
(N 7 kph)
0.00 in
(0.00 mm)
2SM
00:38
Overcast
Light Snow
27°F / -3°C 25°F / -4°C 93% 29.95 in
(1014 mb)
Calm 0.00 in
(0.00 mm)
2SM
00:29
Overcast
Light Snow
27°F / -3°C 25°F / -4°C 93% 29.95 in
(1014 mb)
Calm 0.00 in
(0.00 mm)
2SM
00:07
Overcast
Light Snow
27°F / -3°C 25°F / -4°C 93% 29.95 in
(1014 mb)
N 3.5 mph
(N 6 kph)
0.00 in
(0.00 mm)
2SM
Time Weather Temperature Dewpoint Humidity Pressure Winds Precip Visibility


Weather for websites

WeatherForYou.com, LLC is not responsible for any damages or problems caused by this service. Current weather conditions are obtained from the closest station including government and personal stations which may have varying degrees of accuracy. Weather forecasts are derived from the NOAA NDFD. Like all things, this site belongs to Jesus Christ... He just trusts me to maintain it. If you have any questions or comments email webmaster@weatherforyou.com

Copyright © 2015, WeatherForYou.com LLC. All rights reserved.